Find Starlink 5139

NORAD ID: 55496 Int'l Des: 2023-015 Owner: SPXS Country: US Constellation: starlink decayed
LEOCIRCULAR
Vis

Historical Track — Jul 17, 2023

正在加载3D地球...

关于 Starlink 5139

正在加载描述...

高度历史

Loading altitude history...

两行轨道根数

1 55496U 23015AZ 23198.18440564 .08000668 90087-5 15843-2 0 9995
2 55496 42.9809 102.3554 0014405 242.9769 251.4762 16.30198490 26226
Epoch: Jul 17, 2023 • Age: 24617 hours

当前状态

Position data unavailable
发射日期 Feb 2, 2023
运行时间 3.2 years
衰减日期 Jul 17, 2023
类型 internet

技术详情

分类 Payload
质量 305.00 kg
干质量 290.00 kg
总质量 305.00 kg
长度 0.20 m
直径 2.80 m
跨度 9.00 m
形状 Box + pan
制造商 SPXS
平台类型 Starlink
阶段状态 Reentered
所有者/国家 SPXS/US

Most Searched